Regional Weather Roundup
Issued by NWS

Home | Current Version | Previous Version | Text Only | Print | Product List | Glossary Off
Versions: 1 2 3 4 5 6 7 8 9 10 11 12 13 14 15 16 17 18 19 20 21 22 23 24 25 26 27 28

000
ASUS45 KPSR 250110
RWRAZ

ARIZONA HOURLY REGIONAL WEATHER ROUNDUP
NATIONAL WEATHER SERVICE PHOENIX AZ
600 PM MST MON APR 24 2017

NOTE: FAIR INDICATES FEW OR NO CLOUDS BELOW 12,000 FEET WITH NO
SIGNIFICANT WEATHER AND/OR OBSTRUCTIONS TO VISIBILITY.

AZZ001>003-036-250200-
NORTHWEST ARIZONA

CITY           SKY/WX    TMP DP  RH WIND       PRES   REMARKS
BULLHEAD CITY  CLOUDY    86  32  14 SW9G18    29.56F
KINGMAN        CLOUDY    73  28  18 SW18      29.71F
$$

AZZ004>008-015-016-018-250200-
NORTH CENTRAL ARIZONA

CITY           SKY/WX    TMP DP  RH WIND       PRES   REMARKS
GRAND CANYON   CLOUDY    59  24  26 SW16G28   29.80F
WILLIAMS       PTSUNNY   59  27  29 SW18G29   29.84S
PRESCOTT       PTSUNNY   68  27  21 SW15G23   29.81S
FLAGSTAFF      PTSUNNY   58  24  27 SW25G38   29.82S
PAYSON         PTSUNNY   68  14  12 SW9G18    29.85S
PAGE           CLOUDY    73  22  14 W14G25    29.60F
$$

AZZ009>014-017-250200-
NORTHEAST ARIZONA

CITY           SKY/WX    TMP DP  RH WIND       PRES   REMARKS
WINSLOW        PTSUNNY   70  18  13 SW21G35   29.73F
SAINT JOHNS    CLOUDY    69  16  13 SW29G40   29.76F
WINDOW ROCK    PTSUNNY   64  17  16 SW30G41   29.77F
SHOW LOW       PTSUNNY   63  16  16 SW30G41   29.83F
$$

AZZ540-542>544-546-548-250200-
GREATER PHOENIX AREA

CITY           SKY/WX    TMP DP  RH WIND       PRES   REMARKS
PHOENIX        PTSUNNY   89  16   7 W14       29.61F
BUCKEYE        PTSUNNY   84  23  10 W17G29    29.62F
GLENDALE       PTSUNNY   90  18   7 SW12G17   29.64F
LUKE AFB       MOSUNNY   87  20   8 SW24      29.60F
DEER VALLEY    MOSUNNY   85  14   7 W23       29.63F
SCOTTSDALE     PTSUNNY   87  16   7 W14G22    29.65F
MESA-FALCON    PTSUNNY  N/A N/A N/A SW17      29.64F
MESA-GATEWAY   PTSUNNY   88  27  11 W12       29.65F
CHANDLER       SUNNY     90  25   9 SW9       29.64F
$$

AZZ539-553-250200-
SOUTHWEST MARICOPA COUNTY AND PINAL COUNTY

CITY           SKY/WX    TMP DP  RH WIND       PRES   REMARKS
CASA GRANDE    CLOUDY    87  23   9 W13       29.65F
GILA BEND      PTSUNNY   90  22   8 SW16      29.60F
$$

AZZ503-504-507>509-250200-
SOUTHEAST ARIZONA

CITY           SKY/WX    TMP DP  RH WIND       PRES   REMARKS
TUCSON         CLOUDY    87  17   7 W18       29.75S
DAVIS-MONTHAN  CLOUDY    86  15   7 W15G23    29.74S
RYAN FIELD     SUNNY     88  23   9 W15       29.74S
NOGALES        PTSUNNY   80  17   9 SW17G29   29.85S
SIERRA VISTA   PTSUNNY   78   9   7 W18G25    29.87F
DOUGLAS        PTSUNNY   80  13   8 W17G26    29.84S
SAFFORD        CLOUDY    84  17   8 NW23G32   29.68F
$$

AZZ532-250200-
SOUTHWEST ARIZONA

CITY           SKY/WX    TMP DP  RH WIND       PRES   REMARKS
YUMA           CLOUDY    87  43  21 W13       29.61F
$$

CAZ041-043-047-048-061-525>527-560>570-250200-
SOUTHERN CALIFORNIA

CITY           SKY/WX    TMP DP  RH WIND       PRES   REMARKS
DOWNTOWN L.A.  MOSUNNY   67  49  52 W5        29.86F
L.A. AIRPORT   PTSUNNY   63  52  67 W17       29.88S
SAN DIEGO      PTSUNNY   64  54  69 SW7       29.91F
BURBANK        PTSUNNY   67  48  50 S9        29.85F
ONTARIO        CLOUDY    66  52  60 SW12      29.86S
RIVERSIDE      PTSUNNY   68  53  58 W13       29.85S
PALM SPRINGS   PTSUNNY   84  47  27 NW18G30   29.64S
EL CENTRO NAS  PTSUNNY   82  42  24 W32G39    29.65F
IMPERIAL       PTSUNNY   81  47  30 W15G30    29.63S
BLYTHE         PTSUNNY   89  38  16 SW18G29   29.57F
NEEDLES        PTSUNNY   87  33  14 NW9G22    29.59S
$$

NVZ020-UTZ003-250200-
SOUTHERN NEVADA-UTAH

CITY           SKY/WX    TMP DP  RH WIND       PRES   REMARKS
LAS VEGAS      CLOUDY    81  26  13 SW16      29.57F
SALT LAKE CITY RAIN      48  41  76 NW16G29   29.73R
$$

NMZ009-TXZ055-250200-
NEW MEXICO-WEST TEXAS

CITY           SKY/WX    TMP DP  RH WIND       PRES   REMARKS
ALBUQUERQUE    CLOUDY    76  13   9 W23G30    29.68F
EL PASO        MOCLDY    86  11   6 W33G40    29.69F
$$


........................KEY........................
SKY/WX - SKY CONDITION/WEATHER
TMP    - TEMPERATURE IN FAHRENHEIT
DP     - DEW POINT IN FAHRENHEIT
RH     - RELATIVE HUMIDITY IN PERCENT
WIND   - DIRECTION AND SPEED IN MILES PER HOUR (MPH)
VRB    - VARIABLE WIND DIRECTION
PRES   - MEAN SEA LEVEL PRESSURE IN INCHES OF MERCURY
         F - FALLING PRESSURE   R - RISING PRESSURE
         S - STEADY PRESSURE
VSB    - VISIBILITY IN MILES
HX     - HEAT INDEX IN FAHRENHEIT
WCI    - WIND CHILL INDEX IN FAHRENHEIT
TC     - TEMPERATURE IN CELSIUS WHICH IS ALSO KNOWN AS
         TEMPERATURE IN CENTIGRADE
AFB    - AIR FORCE BASE
         LUKE AFB IS LUKE AIR FORCE BASE
         DAVIS-MONTHAN IS DAVIS-MONTHAN AIR FORCE BASE
NAS    - NAVAL AIR STATION
         EL CENTRO NAS IS EL CENTRO NAVAL AIR STATION
N/A    - NOT AVAILABLE





USA.gov is the U.S. government's official web portal to all federal, state and local government web resources and services.